• In Austria
  • List of Countries
  • For 7 days
  • Water Temperature
  • Satellite Maps
  • Weather Map
  • News
  • Weather Widgets
  • user-avatar
    Login

    Hourly Weather Baranovichi

    Today, 19 February, Monday

    Time Temperature Precipitation Wind Pressure Humidity
    00:00 -9°C° 0 mm 3 mps 752 mmHg 93%
    01:00 -9°C° 0 mm 3 mps 752 mmHg 94%
    02:00 -8°C° 0 mm 2 mps 751 mmHg 94%
    03:00 -9°C° 0.1 mm 3 mps 751 mmHg 94%
    04:00 -8°C° 0.1 mm 3 mps 751 mmHg 93%
    05:00 -8°C° 0.1 mm 3 mps 751 mmHg 93%
    06:00 -8°C° 0.1 mm 3 mps 751 mmHg 93%
    07:00 -8°C° 0.1 mm 3 mps 751 mmHg 93%
    08:00 -8°C° 0.1 mm 3 mps 751 mmHg 93%
    09:00 -6°C° 0.1 mm 3 mps 751 mmHg 92%
    10:00 -5°C° 0.1 mm 3 mps 751 mmHg 90%
    11:00 -4°C° 0.1 mm 4 mps 751 mmHg 89%
    12:00 -2°C° 0.1 mm 3 mps 751 mmHg 89%
    13:00 -2°C° 0.1 mm 3 mps 751 mmHg 89%
    14:00 -1°C° 0.1 mm 3 mps 751 mmHg 89%
    15:00 -1°C° 0.1 mm 3 mps 751 mmHg 89%
    16:00 -2°C° 0.1 mm 2 mps 751 mmHg 90%
    17:00 -2°C° 0.1 mm 2 mps 751 mmHg 90%
    18:00 -3°C° 0 mm 2 mps 751 mmHg 91%
    19:00 -3°C° 0 mm 2 mps 751 mmHg 92%
    20:00 -4°C° 0 mm 2 mps 751 mmHg 93%
    21:00 -3°C° 0 mm 1 mps 751 mmHg 93%
    22:00 -3°C° 0 mm 1 mps 751 mmHg 94%
    23:00 -4°C° 0 mm 1 mps 751 mmHg 94%

    Tomorrow, 20 February, Tuesday

    Time Temperature Precipitation Wind Pressure Humidity
    00:00 -4°C° 0 mm 1 mps 751 mmHg 94%
    01:00 -6°C° 0 mm 1 mps 752 mmHg 94%
    02:00 -6°C° 0 mm 0 mps 752 mmHg 93%
    03:00 -6°C° 0 mm 0 mps 752 mmHg 93%
    04:00 -6°C° 0 mm 0 mps 752 mmHg 93%
    05:00 -7°C° 0 mm 0 mps 752 mmHg 93%
    06:00 -7°C° 0 mm 0 mps 752 mmHg 93%
    07:00 -7°C° 0 mm 0 mps 752 mmHg 93%
    08:00 -7°C° 0 mm 0 mps 752 mmHg 93%
    09:00 -6°C° 0 mm 0 mps 752 mmHg 90%
    10:00 -4°C° 0 mm 0 mps 752 mmHg 88%
    11:00 -2°C° 0 mm 1 mps 752 mmHg 85%
    12:00 -2°C° 0 mm 1 mps 752 mmHg 83%
    13:00 -1°C° 0 mm 1 mps 752 mmHg 82%
    14:00 0°C° 0 mm 1 mps 752 mmHg 80%
    15:00 -1°C° 0 mm 1 mps 752 mmHg 82%
    16:00 -2°C° 0 mm 1 mps 751 mmHg 84%
    17:00 -3°C° 0 mm 1 mps 751 mmHg 87%
    18:00 -3°C° 0 mm 1 mps 751 mmHg 88%
    19:00 -4°C° 0 mm 1 mps 751 mmHg 89%
    20:00 -6°C° 0 mm 1 mps 751 mmHg 90%
    21:00 -6°C° 0 mm 1 mps 752 mmHg 90%
    22:00 -6°C° 0 mm 1 mps 752 mmHg 90%
    23:00 -6°C° 0 mm 1 mps 752 mmHg 91%

    Day after tomorrow, 21 February, Wednesday

    Time Temperature Precipitation Wind Pressure Humidity
    00:00 -6°C° 0 mm 1 mps 752 mmHg 91%
    01:00 -7°C° 0 mm 1 mps 752 mmHg 91%
    02:00 -7°C° 0 mm 1 mps 752 mmHg 91%
    03:00 -7°C° 0 mm 1 mps 751 mmHg 91%
    04:00 -7°C° 0 mm 1 mps 751 mmHg 91%
    05:00 -7°C° 0 mm 1 mps 751 mmHg 91%
    06:00 -7°C° 0 mm 1 mps 751 mmHg 91%
    07:00 -7°C° 0 mm 1 mps 751 mmHg 91%
    08:00 -7°C° 0 mm 1 mps 751 mmHg 92%
    09:00 -6°C° 0 mm 1 mps 751 mmHg 90%
    10:00 -6°C° 0 mm 2 mps 751 mmHg 88%
    11:00 -4°C° 0 mm 2 mps 751 mmHg 86%
    12:00 -4°C° 0 mm 2 mps 751 mmHg 84%
    13:00 -1°C° 0 mm 1 mps 750 mmHg 83%
    14:00 0°C° 0 mm 1 mps 750 mmHg 81%
    15:00 -1°C° 0 mm 1 mps 750 mmHg 83%
    16:00 -1°C° 0 mm 1 mps 750 mmHg 85%
    17:00 -2°C° 0 mm 1 mps 750 mmHg 87%
    18:00 -2°C° 0 mm 1 mps 750 mmHg 88%
    19:00 -3°C° 0 mm 1 mps 750 mmHg 90%
    20:00 -3°C° 0 mm 1 mps 750 mmHg 91%
    21:00 -4°C° 0 mm 1 mps 750 mmHg 92%
    22:00 -4°C° 0 mm 1 mps 751 mmHg 92%
    23:00 -4°C° 0 mm 1 mps 751 mmHg 93%

    22 February, Thursday

    Time Temperature Precipitation Wind Pressure Humidity
    00:00 -4°C° 0 mm 1 mps 751 mmHg 93%
    01:00 -6°C° 0 mm 1 mps 751 mmHg 94%
    02:00 -6°C° 0 mm 1 mps 751 mmHg 94%
    03:00 -6°C° 0 mm 1 mps 751 mmHg 94%
    04:00 -7°C° 0 mm 1 mps 751 mmHg 95%
    05:00 -8°C° 0 mm 2 mps 751 mmHg 95%
    06:00 -8°C° 0 mm 2 mps 751 mmHg 95%
    07:00 -8°C° 0 mm 2 mps 751 mmHg 94%
    08:00 -9°C° 0 mm 2 mps 752 mmHg 94%
    09:00 -8°C° 0 mm 2 mps 752 mmHg 93%
    10:00 -8°C° 0 mm 2 mps 752 mmHg 91%
    11:00 -7°C° 0 mm 2 mps 752 mmHg 90%
    12:00 -7°C° 0 mm 2 mps 752 mmHg 89%
    13:00 -6°C° 0 mm 2 mps 752 mmHg 88%
    14:00 -6°C° 0 mm 2 mps 752 mmHg 88%
    15:00 -6°C° 0 mm 2 mps 751 mmHg 88%
    16:00 -7°C° 0 mm 3 mps 751 mmHg 89%
    17:00 -8°C° 0 mm 3 mps 751 mmHg 89%
    18:00 -8°C° 0 mm 3 mps 751 mmHg 90%
    19:00 -9°C° 0 mm 3 mps 751 mmHg 91%
    20:00 -9°C° 0 mm 3 mps 751 mmHg 92%
    21:00 -10°C° 0 mm 3 mps 752 mmHg 92%
    22:00 -10°C° 0 mm 3 mps 752 mmHg 92%
    23:00 -10°C° 0 mm 3 mps 752 mmHg 92%

    23 February, Friday

    Time Temperature Precipitation Wind Pressure Humidity
    00:00 -12°C° 0 mm 3 mps 751 mmHg 92%
    01:00 -12°C° 0 mm 3 mps 751 mmHg 93%
    02:00 -13°C° 0 mm 3 mps 751 mmHg 93%
    03:00 -13°C° 0 mm 3 mps 751 mmHg 93%
    04:00 -14°C° 0 mm 3 mps 751 mmHg 93%
    05:00 -15°C° 0 mm 3 mps 751 mmHg 93%
    06:00 -15°C° 0 mm 3 mps 751 mmHg 93%
    07:00 -15°C° 0 mm 3 mps 751 mmHg 93%
    08:00 -16°C° 0 mm 3 mps 751 mmHg 93%
    09:00 -15°C° 0 mm 3 mps 751 mmHg 91%
    10:00 -15°C° 0 mm 3 mps 751 mmHg 90%
    11:00 -14°C° 0 mm 3 mps 751 mmHg 88%
    12:00 -15°C° 0 mm 4 mps 750 mmHg 86%
    13:00 -14°C° 0 mm 4 mps 750 mmHg 85%
    14:00 -14°C° 0 mm 4 mps 750 mmHg 83%
    15:00 -14°C° 0 mm 4 mps 750 mmHg 84%
    16:00 -15°C° 0 mm 4 mps 750 mmHg 84%
    17:00 -15°C° 0 mm 4 mps 750 mmHg 85%
    18:00 -16°C° 0 mm 4 mps 750 mmHg 86%
    19:00 -16°C° 0 mm 4 mps 750 mmHg 87%
    20:00 -17°C° 0 mm 4 mps 750 mmHg 88%
    21:00 -17°C° 0 mm 4 mps 750 mmHg 89%
    22:00 -18°C° 0 mm 4 mps 750 mmHg 89%
    23:00 -18°C° 0 mm 4 mps 751 mmHg 90%

    24 February, Saturday

    Time Temperature Precipitation Wind Pressure Humidity
    00:00 -18°C° 0 mm 4 mps 750 mmHg 90%
    01:00 -19°C° 0 mm 4 mps 750 mmHg 91%
    02:00 -19°C° 0 mm 4 mps 750 mmHg 91%
    03:00 -19°C° 0 mm 4 mps 750 mmHg 91%
    04:00 -19°C° 0 mm 4 mps 750 mmHg 91%
    05:00 -19°C° 0 mm 4 mps 750 mmHg 91%
    06:00 -19°C° 0 mm 4 mps 750 mmHg 90%
    07:00 -20°C° 0 mm 5 mps 750 mmHg 90%
    08:00 -20°C° 0 mm 5 mps 749 mmHg 89%
    09:00 -20°C° 0 mm 5 mps 749 mmHg 87%
    10:00 -19°C° 0 mm 5 mps 749 mmHg 84%
    11:00 -18°C° 0 mm 6 mps 749 mmHg 82%
    12:00 -18°C° 0 mm 6 mps 749 mmHg 81%
    13:00 -17°C° 0 mm 6 mps 748 mmHg 80%
    14:00 -17°C° 0 mm 6 mps 748 mmHg 78%
    15:00 -17°C° 0.1 mm 6 mps 748 mmHg 80%
    16:00 -17°C° 0.1 mm 6 mps 748 mmHg 82%
    17:00 -17°C° 0.1 mm 6 mps 748 mmHg 83%
    18:00 -17°C° 0.1 mm 6 mps 747 mmHg 85%
    19:00 -18°C° 0.1 mm 5 mps 747 mmHg 86%
    20:00 -18°C° 0.1 mm 5 mps 747 mmHg 88%
    21:00 -17°C° 0.1 mm 5 mps 747 mmHg 88%
    22:00 -15°C° 0.1 mm 5 mps 746 mmHg 88%
    23:00 -15°C° 0.1 mm 5 mps 746 mmHg 89%
    Show more